KC5DAQ-2 Weather Reports


Display with metric or nautical units.
time (UTC)temp
F
wind
direction
speed
MPH
gust
MPH
rain 1hr
in
rain 24hr
in
rain mn
in
humidity
%
barometer
mb
20260505125024 71 180 0.0 2.0 0.00 0.00 0.00 99 1001.0
20260505124924 71 180 0.0 2.0 0.00 0.00 0.00 99 1001.0
20260505124816 71 185 0.0 2.0 0.00 0.00 0.00 99 1001.0
20260505124711 71 185 0.0 2.0 0.00 0.00 0.00 99 1000.9
20260505124604 71 185 0.0 2.0 0.00 0.00 0.00 99 1001.0
20260505124504 71 185 0.0 2.0 0.00 0.00 0.00 99 1001.0
20260505124403 71 288 0.0 2.0 0.00 0.00 0.00 99 1001.0
20260505124302 71 100 0.0 2.0 0.00 0.00 0.00 99 1000.9
20260505124203 71 123 0.0 2.0 0.00 0.00 0.00 99 1001.0
20260505124106 71 123 0.0 2.0 0.00 0.00 0.00 99 1001.0
20260505124004 71 117 0.0 3.0 0.00 0.00 0.00 99 1000.8
20260505123902 71 117 0.0 3.0 0.00 0.00 0.00 99 1000.7
20260505123803 71 116 0.0 3.0 0.00 0.00 0.00 99 1000.6
20260505123704 71 214 0.0 3.0 0.00 0.00 0.00 99 1000.5
20260505123602 71 209 0.0 3.0 0.00 0.00 0.00 99 1000.6
20260505123506 71 199 0.0 3.0 0.00 0.00 0.00 99 1000.5
20260505123403 71 168 0.0 3.0 0.00 0.00 0.00 99 1000.4
20260505123302 71 166 0.0 3.0 0.00 0.00 0.00 99 1000.4
20260505123206 71 166 1.0 3.0 0.00 0.00 0.00 99 1000.4
20260505123102 71 319 0.0 3.0 0.00 0.00 0.00 99 1000.4
20260505123005 71 233 1.0 2.0 0.00 0.00 0.00 99 1000.4
20260505122904 71 233 0.0 2.0 0.00 0.00 0.00 99 1000.4
20260505122802 71 238 0.0 2.0 0.00 0.00 0.00 99 1000.5
20260505122702 71 240 0.0 2.0 0.00 0.00 0.00 99 1000.4
20260505122603 71 240 0.0 2.0 0.00 0.00 0.00 99 1000.6
20260505122503 71 240 0.0 2.0 0.00 0.00 0.00 99 1000.6
20260505122403 71 240 0.0 2.0 0.00 0.00 0.00 99 1000.5
20260505122305 70 275 0.0 2.0 0.00 0.00 0.00 99 1000.5
20260505122204 71 275 0.0 2.0 0.00 0.00 0.00 99 1000.6
20260505122102 70 276 0.0 2.0 0.00 0.00 0.00 99 1000.6
20260505122005 70 278 0.0 2.0 0.00 0.00 0.00 99 1000.6
20260505121904 70 278 0.0 2.0 0.00 0.00 0.00 99 1000.6
20260505121802 70 217 0.0 2.0 0.00 0.00 0.00 99 1000.6
20260505121703 70 219 0.0 2.0 0.00 0.00 0.00 99 1000.6
20260505121602 70 219 0.0 2.0 0.00 0.00 0.00 99 1000.6
20260505121502 70 219 0.0 2.0 0.00 0.00 0.00 99 1000.6
20260505121402 70 219 0.0 2.0 0.00 0.00 0.00 99 1000.5
20260505121301 70 219 0.0 2.0 0.00 0.00 0.00 99 1000.6
20260505121200 70 186 0.0 2.0 0.00 0.00 0.00 99 1000.6
20260505121055 70 190 0.0 2.0 0.00 0.00 0.00 99 1000.6
20260505120952 70 209 0.0 2.0 0.00 0.00 0.00 99 1000.7
20260505120849 70 209 0.0 2.0 0.00 0.00 0.00 99 1000.7
20260505120744 70 209 0.0 2.0 0.00 0.00 0.00 99 1000.7
20260505120636 70 209 0.0 2.0 0.00 0.00 0.00 99 1000.7
20260505120535 70 209 0.0 2.0 0.00 0.00 0.00 99 1000.7
20260505120432 70 209 0.0 2.0 0.00 0.00 0.00 99 1000.6
20260505120332 70 209 0.0 2.0 0.00 0.00 0.00 99 1000.5
20260505120231 70 207 0.0 2.0 0.00 0.00 0.00 99 1000.5
20260505120131 70 169 1.0 2.0 0.00 0.00 0.00 99 1000.5
20260505120032 70 137 1.0 2.0 0.00 0.00 0.00 99 1000.4
20260505115932 70 0 0.0 2.0 0.00 0.00 0.00 99 1000.4
20260505115832 70 302 0.0 2.0 0.00 0.00 0.00 99 1000.5
20260505115732 70 302 0.0 2.0 0.00 0.00 0.00 99 1000.5
20260505115632 70 302 0.0 4.0 0.00 0.00 0.00 99 1000.5
20260505115532 70 302 0.0 4.0 0.00 0.00 0.00 99 1000.5
20260505115431 70 302 0.0 4.0 0.00 0.00 0.00 99 1000.5
20260505115333 70 302 0.0 4.0 0.00 0.00 0.00 99 1000.5
20260505115232 70 302 0.0 4.0 0.00 0.00 0.00 99 1000.4
20260505115132 70 302 0.0 4.0 0.00 0.00 0.00 99 1000.4
20260505115028 70 305 0.0 4.0 0.00 0.00 0.00 99 1000.3
20260505114924 70 189 0.0 4.0 0.00 0.00 0.00 99 1000.3
20260505114823 70 189 0.0 4.0 0.00 0.00 0.00 99 1000.2
20260505114721 70 190 0.0 4.0 0.00 0.00 0.00 99 1000.3
20260505114622 70 147 0.0 4.0 0.00 0.00 0.00 99 1000.3
20260505114522 70 147 0.0 4.0 0.00 0.00 0.00 99 1000.3
20260505114423 70 147 1.0 4.0 0.00 0.00 0.00 98 1000.4
20260505114323 70 147 1.0 4.0 0.00 0.00 0.00 98 1000.3
20260505114224 70 168 0.0 0.0 0.00 0.00 0.00 98 1000.3
20260505114125 70 168 0.0 1.0 0.00 0.00 0.00 98 1000.4
20260505114022 70 168 0.0 1.0 0.00 0.00 0.00 98 1000.4
20260505113921 70 213 0.0 1.0 0.00 0.00 0.00 98 1000.4
20260505113823 70 219 0.0 1.0 0.00 0.00 0.00 98 1000.5
20260505113721 70 219 0.0 1.0 0.00 0.00 0.00 99 1000.3
20260505113623 70 219 0.0 1.0 0.00 0.00 0.00 99 1000.4
20260505113522 70 219 0.0 1.0 0.00 0.00 0.00 99 1000.3
20260505113422 70 219 0.0 1.0 0.00 0.00 0.00 98 1000.3
20260505113322 70 245 0.0 1.0 0.00 0.00 0.00 98 1000.2
20260505113222 70 245 0.0 1.0 0.00 0.00 0.00 98 1000.1
20260505113121 70 244 0.0 1.0 0.00 0.00 0.00 98 1000.2
20260505113022 70 258 0.0 1.0 0.00 0.00 0.00 99 1000.2
20260505112922 70 258 0.0 1.0 0.00 0.00 0.00 99 1000.3
20260505112821 70 258 0.0 1.0 0.00 0.00 0.00 99 1000.3
20260505112724 70 258 0.0 1.0 0.00 0.00 0.00 99 1000.3
20260505112623 70 259 0.0 1.0 0.00 0.00 0.00 98 1000.3
20260505112521 70 265 0.0 1.0 0.00 0.00 0.00 98 1000.3
20260505112422 70 87 0.0 0.0 0.00 0.00 0.00 99 1000.4
20260505112322 70 87 0.0 0.0 0.00 0.00 0.00 99 1000.5
20260505112221 70 148 0.0 0.0 0.00 0.00 0.00 99 1000.5
20260505112123 70 148 0.0 0.0 0.00 0.00 0.00 99 1000.6
20260505112023 70 255 0.0 0.0 0.00 0.00 0.00 99 1000.6
20260505111921 70 255 0.0 0.0 0.00 0.00 0.00 98 1000.6
20260505111822 70 255 0.0 0.0 0.00 0.00 0.00 98 1000.6
20260505111723 70 255 0.0 0.0 0.00 0.00 0.00 98 1000.6
20260505111621 70 255 0.0 0.0 0.00 0.00 0.00 99 1000.6
20260505111523 70 255 0.0 0.0 0.00 0.00 0.00 98 1000.6
20260505111421 70 255 0.0 0.0 0.00 0.00 0.00 98 1000.5
20260505111321 70 255 0.0 0.0 0.00 0.00 0.00 98 1000.5
20260505111222 70 212 0.0 0.0 0.00 0.00 0.00 98 1000.6
20260505111122 70 212 0.0 0.0 0.00 0.00 0.00 98 1000.5
20260505111020 70 212 0.0 0.0 0.00 0.00 0.00 98 1000.5
20260505110921 70 212 0.0 0.0 0.00 0.00 0.00 98 1000.6
20260505110822 70 213 0.0 0.0 0.00 0.00 0.00 98 1000.6
20260505110722 70 213 0.0 0.0 0.00 0.00 0.00 98 1000.6
20260505110621 70 213 0.0 0.0 0.00 0.00 0.00 98 1000.5
20260505110521 70 213 0.0 0.0 0.00 0.00 0.00 98 1000.5
20260505110421 70 213 0.0 0.0 0.00 0.00 0.00 98 1000.4
20260505110325 70 213 0.0 0.0 0.00 0.00 0.00 98 1000.5
20260505110222 70 213 0.0 0.0 0.00 0.00 0.00 98 1000.4
20260505110121 70 213 0.0 0.0 0.00 0.00 0.00 98 1000.4
20260505102221 69 214 0.0 2.0 0.00 0.00 0.00 98 1000.5
20260505102121 69 213 0.0 2.0 0.00 0.00 0.00 98 1000.5
20260505102020 69 172 0.0 2.0 0.00 0.00 0.00 98 1000.6
20260505101920 69 172 0.0 2.0 0.00 0.00 0.00 98 1000.6
20260505101821 69 172 0.0 2.0 0.00 0.00 0.00 98 1000.6
20260505101719 69 171 0.0 2.0 0.00 0.00 0.00 98 1000.6
20260505101619 69 179 0.0 2.0 0.00 0.00 0.00 98 1000.6
20260505101521 69 173 0.0 1.0 0.00 0.00 0.00 98 1000.6
20260505101422 69 173 0.0 1.0 0.00 0.00 0.00 98 1000.6
20260505101320 69 149 0.0 1.0 0.00 0.00 0.00 98 1000.7
20260505101222 69 149 0.0 1.0 0.00 0.00 0.00 98 1000.5
20260505101121 69 149 0.0 1.0 0.00 0.00 0.00 98 1000.6
20260505101019 69 149 0.0 1.0 0.00 0.00 0.00 98 1000.6
20260505100904 69 148 0.0 1.0 0.00 0.00 0.00 98 1000.6
20260505100802 69 151 0.0 1.0 0.00 0.00 0.00 98 1000.5
20260505100703 69 151 0.0 1.0 0.00 0.00 0.00 98 1000.4
20260505100603 69 244 0.0 1.0 0.00 0.00 0.00 97 1000.4
20260505100505 69 224 0.0 1.0 0.00 0.00 0.00 97 1000.5
20260505100403 69 224 0.0 1.0 0.00 0.00 0.00 97 1000.5
20260505100302 69 228 0.0 1.0 0.00 0.00 0.00 97 1000.5
20260505100204 69 216 0.0 1.0 0.00 0.00 0.00 97 1000.4
20260505100110 69 213 0.0 1.0 0.00 0.00 0.00 97 1000.4
20260505100002 69 202 0.0 1.0 0.00 0.00 0.00 97 1000.4
20260505095902 69 202 0.0 1.0 0.00 0.00 0.00 97 1000.3
20260505095803 69 202 0.0 1.0 0.00 0.00 0.00 97 1000.4
20260505095702 69 202 0.0 1.0 0.00 0.00 0.00 97 1000.4
20260505095602 69 202 0.0 1.0 0.00 0.00 0.00 97 1000.4
20260505095504 69 207 0.0 1.0 0.00 0.00 0.00 97 1000.5
20260505095404 69 207 0.0 1.0 0.00 0.00 0.00 97 1000.5
20260505095257 69 206 0.0 1.0 0.00 0.00 0.00 97 1000.4
20260505095157 69 206 0.0 1.0 0.00 0.00 0.00 97 1000.4
20260505095050 69 207 0.0 0.0 0.00 0.00 0.00 97 1000.5
20260505094945 69 207 0.0 0.0 0.00 0.00 0.00 97 1000.5
20260505094841 69 207 0.0 0.0 0.00 0.00 0.00 97 1000.5
20260505094737 69 207 0.0 2.0 0.00 0.00 0.00 97 1000.6
20260505094632 69 207 0.0 2.0 0.00 0.00 0.00 97 1000.6
20260505094532 69 207 0.0 2.0 0.00 0.00 0.00 97 1000.6
20260505094431 69 207 0.0 2.0 0.00 0.00 0.00 97 1000.6
20260505094332 69 207 0.0 2.0 0.00 0.00 0.00 97 1000.7
20260505094232 69 207 0.0 2.0 0.00 0.00 0.00 97 1000.6
20260505094131 69 207 0.0 2.0 0.00 0.00 0.00 97 1000.6
20260505094033 69 230 0.0 2.0 0.00 0.00 0.00 97 1000.6
20260505093927 69 230 0.0 2.0 0.00 0.00 0.00 97 1000.6
20260505093824 69 230 0.0 2.0 0.00 0.00 0.00 97 1000.6
20260505093719 69 202 0.0 0.0 0.00 0.00 0.00 97 1000.6
20260505093619 69 202 0.0 0.0 0.00 0.00 0.00 97 1000.6
20260505093519 69 202 0.0 0.0 0.00 0.00 0.00 97 1000.6
20260505093418 69 265 0.0 0.0 0.00 0.00 0.00 97 1000.6
20260505093318 69 265 0.0 0.0 0.00 0.00 0.00 97 1000.6
20260505093221 69 190 0.0 0.0 0.00 0.00 0.00 97 1000.5
20260505093113 69 190 0.0 0.0 0.00 0.00 0.00 97 1000.6
20260505093012 69 190 0.0 0.0 0.00 0.00 0.00 97 1000.6
20260505092905 69 178 0.0 0.0 0.00 0.00 0.00 97 1000.6
20260505092803 69 176 0.0 0.0 0.00 0.00 0.00 97 1000.6
20260505092704 69 176 0.0 0.0 0.00 0.00 0.00 97 1000.6
20260505092604 69 176 0.0 1.0 0.00 0.00 0.00 97 1000.6
20260505092502 69 176 0.0 1.0 0.00 0.00 0.00 97 1000.6
20260505092404 69 176 0.0 1.0 0.00 0.00 0.00 97 1000.6
20260505092305 69 176 0.0 1.0 0.00 0.00 0.00 97 1000.6
20260505092202 69 178 0.0 1.0 0.00 0.00 0.00 97 1000.6
20260505092103 69 176 0.0 1.0 0.00 0.00 0.00 97 1000.6
20260505092004 69 176 0.0 1.0 0.00 0.00 0.00 97 1000.6
20260505091903 69 176 0.0 1.0 0.00 0.00 0.00 97 1000.7
20260505091804 69 176 0.0 1.0 0.00 0.00 0.00 97 1000.7
20260505091703 69 176 0.0 1.0 0.00 0.00 0.00 96 1000.7
20260505091603 69 176 0.0 1.0 0.00 0.00 0.00 96 1000.8
20260505091504 69 210 0.0 1.0 0.00 0.00 0.00 96 1000.8
20260505091404 69 197 0.0 0.0 0.00 0.00 0.00 96 1000.8
20260505091304 69 197 0.0 1.0 0.00 0.00 0.00 96 1000.8
20260505091203 69 197 0.0 1.0 0.00 0.00 0.00 96 1000.8
20260505091104 69 197 0.0 1.0 0.00 0.00 0.00 96 1000.8
20260505091002 69 196 0.0 1.0 0.00 0.00 0.00 96 1000.9
20260505090903 69 196 0.0 1.0 0.00 0.00 0.00 96 1000.9
20260505090804 69 196 0.0 1.0 0.00 0.00 0.00 96 1001.0
20260505090703 69 196 0.0 1.0 0.00 0.00 0.00 96 1000.9
20260505090603 69 196 0.0 1.0 0.00 0.00 0.00 96 1001.0
20260505090505 69 196 0.0 1.0 0.00 0.00 0.00 96 1000.9
20260505090402 69 196 0.0 1.0 0.00 0.00 0.00 96 1000.9
20260505090304 69 188 0.0 1.0 0.00 0.00 0.00 96 1001.0
20260505090204 69 188 0.0 1.0 0.00 0.00 0.00 96 1000.9
20260505090105 69 188 0.0 1.0 0.00 0.00 0.00 96 1000.9
20260505090002 69 192 0.0 1.0 0.00 0.00 0.00 96 1000.9
20260505085904 69 216 0.0 0.0 0.00 0.00 0.00 96 1000.9
20260505085804 69 216 0.0 0.0 0.00 0.00 0.00 96 1000.9
20260505085658 69 217 0.0 0.0 0.00 0.00 0.00 96 1000.9
20260505085550 69 220 0.0 0.0 0.00 0.00 0.00 96 1000.9
20260505085439 69 220 0.0 0.0 0.00 0.00 0.00 96 1000.9
20260505085330 69 220 0.0 0.0 0.00 0.00 0.00 96 1000.9
20260505085231 69 220 0.0 0.0 0.00 0.00 0.00 96 1001.0
20260505085132 69 219 0.0 0.0 0.00 0.00 0.00 96 1001.0
20260505085034 69 219 0.0 0.0 0.00 0.00 0.00 96 1001.0
20260505084931 69 219 0.0 1.0 0.00 0.00 0.00 96 1000.9
20260505084834 69 219 0.0 1.0 0.00 0.00 0.00 96 1001.0
20260505084732 69 219 0.0 1.0 0.00 0.00 0.00 96 1000.9
20260505084631 69 233 0.0 1.0 0.00 0.00 0.00 96 1000.9
20260505084532 69 233 0.0 1.0 0.00 0.00 0.00 96 1001.0
20260505084432 69 233 0.0 1.0 0.00 0.00 0.00 96 1000.9
20260505084331 69 230 0.0 1.0 0.00 0.00 0.00 96 1000.9
20260505084223 69 230 0.0 1.0 0.00 0.00 0.00 96 1000.9
20260505084119 69 230 0.0 1.0 0.00 0.00 0.00 96 1001.0
20260505084019 69 230 0.0 1.0 0.00 0.00 0.00 96 1000.9
20260505083917 69 275 0.0 0.0 0.00 0.00 0.00 96 1000.9
20260505083817 69 275 0.0 0.0 0.00 0.00 0.00 96 1001.0
20260505083717 69 275 0.0 0.0 0.00 0.00 0.00 96 1001.0
20260505083618 69 275 0.0 0.0 0.00 0.00 0.00 96 1000.9
20260505083517 69 275 0.0 0.0 0.00 0.00 0.00 96 1001.0
20260505083418 69 275 0.0 0.0 0.00 0.00 0.00 96 1001.0
20260505083318 69 275 0.0 0.0 0.00 0.00 0.00 96 1001.1
20260505083217 69 275 0.0 0.0 0.00 0.00 0.00 96 1001.0
20260505083119 69 275 0.0 0.0 0.00 0.00 0.00 96 1000.9
20260505083019 69 275 0.0 0.0 0.00 0.00 0.00 96 1001.0
20260505082918 69 275 0.0 0.0 0.00 0.00 0.00 96 1001.0
20260505082817 69 275 0.0 0.0 0.00 0.00 0.00 96 1001.0
20260505082718 69 275 0.0 0.0 0.00 0.00 0.00 96 1001.0
20260505082617 69 275 0.0 0.0 0.00 0.00 0.00 96 1001.0
20260505082517 69 120 0.0 0.0 0.00 0.00 0.00 96 1001.0
20260505082420 69 120 0.0 0.0 0.00 0.00 0.00 96 1001.0
20260505082320 69 120 0.0 0.0 0.00 0.00 0.00 96 1001.1
20260505082217 69 120 0.0 0.0 0.00 0.00 0.00 96 1001.1
20260505082119 69 120 0.0 0.0 0.00 0.00 0.00 96 1001.1
20260505082019 69 120 0.0 0.0 0.00 0.00 0.00 96 1001.1
20260505081917 69 120 0.0 0.0 0.00 0.00 0.00 96 1001.1
20260505081817 69 120 0.0 0.0 0.00 0.00 0.00 95 1001.2
20260505081717 69 120 0.0 0.0 0.00 0.00 0.00 95 1001.2
20260505081617 69 120 0.0 2.0 0.00 0.00 0.00 95 1001.2
20260505081517 69 120 0.0 2.0 0.00 0.00 0.00 96 1001.2
20260505081419 69 120 0.0 2.0 0.00 0.00 0.00 96 1001.2
20260505081318 69 120 0.0 2.0 0.00 0.00 0.00 95 1001.2
20260505081218 69 120 0.0 2.0 0.00 0.00 0.00 95 1001.2
20260505081117 69 120 0.0 2.0 0.00 0.00 0.00 95 1001.2
20260505081017 69 120 0.0 2.0 0.00 0.00 0.00 95 1001.2
20260505080918 69 120 0.0 2.0 0.00 0.00 0.00 96 1001.1
20260505080817 69 120 0.0 2.0 0.00 0.00 0.00 95 1001.1
20260505080718 69 120 0.0 2.0 0.00 0.00 0.00 95 1001.2
20260505080617 69 235 0.0 0.0 0.00 0.00 0.00 95 1001.2
20260505080525 69 235 0.0 0.0 0.00 0.00 0.00 95 1001.2
20260505080417 69 235 0.0 0.0 0.00 0.00 0.00 95 1001.2
20260505080317 69 235 0.0 0.0 0.00 0.00 0.00 95 1001.2
20260505080219 69 235 0.0 0.0 0.00 0.00 0.00 95 1001.3
20260505080118 69 235 0.0 0.0 0.00 0.00 0.00 95 1001.3
20260505080016 69 235 0.0 0.0 0.00 0.00 0.00 95 1001.3
20260505075917 69 243 0.0 0.0 0.00 0.00 0.00 95 1001.3
20260505075817 69 243 0.0 0.0 0.00 0.00 0.00 95 1001.2
20260505075717 69 243 0.0 0.0 0.00 0.00 0.00 95 1001.3
20260505075619 69 185 0.0 0.0 0.00 0.00 0.00 95 1001.3
20260505075518 69 185 0.0 0.0 0.00 0.00 0.00 95 1001.3
20260505075417 69 185 0.0 0.0 0.00 0.00 0.00 95 1001.3
20260505075318 69 185 0.0 0.0 0.00 0.00 0.00 95 1001.3
20260505075216 69 185 0.0 0.0 0.00 0.00 0.00 95 1001.5
20260505075117 69 185 0.0 0.0 0.00 0.00 0.00 95 1001.5
20260505075016 69 185 0.0 0.0 0.00 0.00 0.00 95 1001.5
20260505074917 69 190 0.0 0.0 0.00 0.00 0.00 95 1001.4
20260505074818 69 190 0.0 0.0 0.00 0.00 0.00 95 1001.4
20260505074716 69 190 0.0 0.0 0.00 0.00 0.00 95 1001.5
20260505074616 69 190 0.0 0.0 0.00 0.00 0.00 95 1001.5
20260505074517 69 190 0.0 0.0 0.00 0.00 0.00 95 1001.5
20260505074416 69 190 0.0 0.0 0.00 0.00 0.00 95 1001.5
20260505074316 69 190 0.0 0.0 0.00 0.00 0.00 95 1001.4
20260505074218 69 190 0.0 0.0 0.00 0.00 0.00 95 1001.5
20260505074116 69 189 0.0 0.0 0.00 0.00 0.00 95 1001.5
20260505074018 69 189 0.0 0.0 0.00 0.00 0.00 95 1001.5
20260505073919 69 189 0.0 0.0 0.00 0.00 0.00 95 1001.4
20260505073813 69 189 0.0 0.0 0.00 0.00 0.00 95 1001.6
20260505073711 69 190 0.0 0.0 0.00 0.00 0.00 95 1001.6
20260505073609 69 190 0.0 0.0 0.00 0.00 0.00 95 1001.6
20260505073507 69 190 0.0 1.0 0.00 0.00 0.00 95 1001.5
20260505073404 69 190 0.0 1.0 0.00 0.00 0.00 95 1001.5
20260505073305 69 189 0.0 1.0 0.00 0.00 0.00 95 1001.6
20260505073202 69 189 0.0 1.0 0.00 0.00 0.00 95 1001.5
20260505073059 69 189 0.0 1.0 0.00 0.00 0.00 95 1001.5
20260505072955 69 189 0.0 1.0 0.00 0.00 0.00 95 1001.5
20260505072853 69 189 0.0 1.0 0.00 0.00 0.00 95 1001.5
20260505072751 69 189 0.0 1.0 0.00 0.00 0.00 95 1001.6
20260505072646 69 189 0.0 1.0 0.00 0.00 0.00 95 1001.6
20260505072538 69 189 0.0 1.0 0.00 0.00 0.00 95 1001.6
20260505072432 69 185 0.0 1.0 0.00 0.00 0.00 95 1001.5
20260505072328 69 185 0.0 1.0 0.00 0.00 0.00 95 1001.6
20260505072227 69 188 0.0 1.0 0.00 0.00 0.00 95 1001.6
20260505072116 69 188 0.0 1.0 0.00 0.00 0.00 95 1001.6
20260505072016 69 188 0.0 1.0 0.00 0.00 0.00 95 1001.5
20260505071917 69 188 0.0 1.0 0.00 0.00 0.00 95 1001.5
20260505071815 69 188 0.0 1.0 0.00 0.00 0.00 95 1001.6
20260505071717 69 185 0.0 0.0 0.00 0.00 0.00 95 1001.6
20260505071615 69 185 0.0 0.0 0.00 0.00 0.00 95 1001.6
20260505071515 69 185 0.0 0.0 0.00 0.00 0.00 95 1001.7
20260505071417 69 185 0.0 0.0 0.00 0.00 0.00 95 1001.7
20260505071315 69 185 0.0 0.0 0.00 0.00 0.00 95 1001.7
20260505071218 69 185 0.0 0.0 0.00 0.00 0.00 95 1001.8
20260505071115 69 185 0.0 1.0 0.00 0.00 0.00 95 1001.7
20260505071016 69 185 0.0 1.0 0.00 0.00 0.00 95 1001.8
20260505070915 69 185 0.0 1.0 0.00 0.00 0.00 95 1001.8
20260505070816 69 183 0.0 1.0 0.00 0.00 0.00 95 1001.8
20260505070716 69 183 0.0 1.0 0.00 0.00 0.00 95 1001.8
20260505070615 69 183 0.0 1.0 0.00 0.00 0.00 95 1001.8
20260505070516 69 183 0.0 1.0 0.00 0.00 0.00 95 1001.8
20260505070415 69 172 0.0 1.0 0.00 0.00 0.00 95 1001.9
20260505070316 69 172 0.0 1.0 0.00 0.00 0.00 95 1001.9
20260505070216 69 172 0.0 1.0 0.00 0.00 0.00 95 1001.9
20260505070115 69 169 0.0 1.0 0.00 0.00 0.00 95 1001.9
20260505070016 69 169 0.0 1.0 0.00 0.00 0.00 95 1001.8
20260505065916 69 169 0.0 1.0 0.00 0.00 0.00 95 1001.9
20260505065816 69 169 0.0 1.0 0.00 0.00 0.00 95 1001.9
20260505065715 69 262 0.0 1.0 0.00 0.00 0.00 95 1001.8
20260505065615 69 261 0.0 1.0 0.00 0.00 0.00 95 1001.9
20260505065515 69 261 0.0 1.0 0.00 0.00 0.00 95 1001.9
20260505065419 69 261 0.0 1.0 0.00 0.00 0.00 95 1001.8
20260505065315 69 261 0.0 1.0 0.00 0.00 0.00 94 1001.8
20260505065215 69 259 0.0 2.0 0.00 0.00 0.00 94 1001.8
20260505065115 69 259 0.0 2.0 0.00 0.00 0.00 94 1001.8
20260505065016 69 259 0.0 2.0 0.00 0.00 0.00 94 1001.8
20260505064914 69 266 0.0 2.0 0.00 0.00 0.00 94 1001.9
20260505064815 69 266 0.0 2.0 0.00 0.00 0.00 94 1001.9
20260505064715 69 271 0.0 2.0 0.00 0.00 0.00 94 1001.9
20260505064615 69 176 0.0 2.0 0.00 0.00 0.00 94 1001.8
20260505064521 69 176 0.0 2.0 0.00 0.00 0.00 94 1002.0
20260505064415 69 176 0.0 2.0 0.00 0.00 0.00 94 1001.9
20260505064315 69 176 0.0 2.0 0.00 0.00 0.00 94 1002.0
20260505064215 69 224 0.0 0.0 0.00 0.00 0.00 94 1002.0
20260505064117 69 221 0.0 0.0 0.00 0.00 0.00 94 1002.0
20260505064015 69 221 0.0 0.0 0.00 0.00 0.00 94 1002.0
20260505063916 69 221 0.0 0.0 0.00 0.00 0.00 94 1001.9
20260505063815 69 223 0.0 0.0 0.00 0.00 0.00 94 1002.0
20260505063714 69 223 0.0 0.0 0.00 0.00 0.00 94 1002.0
20260505063619 69 223 0.0 0.0 0.00 0.00 0.00 94 1002.0
20260505063516 69 221 0.0 0.0 0.00 0.00 0.00 94 1002.0
20260505063416 69 221 0.0 0.0 0.00 0.00 0.00 94 1002.0
20260505063316 69 221 0.0 0.0 0.00 0.00 0.00 94 1001.9
20260505063215 69 221 0.0 1.0 0.00 0.00 0.00 94 1002.0
20260505063114 69 221 0.0 1.0 0.00 0.00 0.00 94 1001.9
20260505063015 69 221 0.0 1.0 0.00 0.00 0.00 94 1001.9
20260505062915 69 221 0.0 1.0 0.00 0.00 0.00 94 1001.9
20260505062815 69 221 0.0 1.0 0.00 0.00 0.00 94 1002.0
20260505062715 69 221 0.0 1.0 0.00 0.00 0.00 94 1001.9
20260505062614 69 221 0.0 2.0 0.00 0.00 0.00 94 1001.9
20260505062514 69 221 0.0 2.0 0.00 0.00 0.00 94 1002.0
20260505062415 69 221 0.0 2.0 0.00 0.00 0.00 94 1002.0
20260505062317 69 221 0.0 2.0 0.00 0.00 0.00 94 1001.9
20260505062214 69 247 0.0 2.0 0.00 0.00 0.00 94 1001.9
20260505062116 69 247 0.0 2.0 0.00 0.00 0.00 94 1001.9
20260505062016 69 247 0.0 2.0 0.00 0.00 0.00 94 1002.0
20260505061915 69 245 0.0 2.0 0.00 0.00 0.00 94 1002.0
20260505061814 69 245 0.0 2.0 0.00 0.00 0.00 94 1002.0
20260505061716 69 245 0.0 2.0 0.00 0.00 0.00 94 1002.1
20260505061615 69 173 0.0 2.0 0.00 0.00 0.00 94 1002.0
20260505061517 69 173 0.0 2.0 0.00 0.00 0.00 94 1002.0
20260505061416 69 173 0.0 2.0 0.00 0.00 0.00 94 1002.0
20260505061314 70 171 0.0 2.0 0.00 0.00 0.00 94 1002.1
20260505061214 69 171 0.0 2.0 0.00 0.00 0.00 94 1002.0
20260505061115 70 171 0.0 2.0 0.00 0.00 0.00 94 1002.0
20260505061018 70 164 0.0 2.0 0.00 0.00 0.00 94 1002.0
20260505060915 69 252 0.0 2.0 0.00 0.00 0.00 94 1002.0
20260505060814 70 278 0.0 1.0 0.00 0.00 0.00 94 1002.0
20260505060715 70 148 0.0 1.0 0.00 0.00 0.00 94 1002.0
20260505060615 70 240 0.0 3.0 0.00 0.00 0.00 93 1002.1
20260505060515 70 238 0.0 3.0 0.00 0.00 0.00 93 1002.0
20260505060415 70 237 0.0 3.0 0.00 0.00 0.00 93 1002.1
20260505060315 70 210 0.0 3.0 0.00 0.00 0.00 93 1002.1
20260505060214 70 210 0.0 3.0 0.00 0.00 0.00 93 1002.1
20260505060114 70 210 0.0 3.0 0.00 0.00 0.00 93 1002.1
20260505060014 70 210 0.0 3.0 0.00 0.00 0.00 93 1002.2
20260505055913 70 210 0.0 3.0 0.00 0.00 0.00 93 1002.1
20260505055815 70 209 1.0 3.0 0.00 0.00 0.00 93 1002.2
20260505055715 70 230 1.0 3.0 0.00 0.00 0.00 93 1002.2
20260505055614 70 203 0.0 1.0 0.00 0.00 0.00 93 1002.3
20260505055515 70 73 0.0 0.0 0.00 0.00 0.00 93 1002.3
20260505055415 70 73 0.0 0.0 0.00 0.00 0.00 93 1002.4
20260505055313 70 73 0.0 0.0 0.00 0.00 0.00 93 1002.4
20260505055218 70 73 0.0 0.0 0.00 0.00 0.00 93 1002.4
20260505055115 70 69 0.0 0.0 0.00 0.00 0.00 93 1002.3
20260505055013 70 69 0.0 0.0 0.00 0.00 0.00 93 1002.3
20260505054911 70 69 0.0 0.0 0.00 0.00 0.00 93 1002.2
20260505054806 70 69 0.0 3.0 0.00 0.00 0.00 93 1002.3
20260505054705 70 69 0.0 3.0 0.00 0.00 0.00 93 1002.3
20260505054603 70 68 0.0 3.0 0.00 0.00 0.00 93 1002.3
20260505054504 70 68 0.0 3.0 0.00 0.00 0.00 93 1002.3
20260505054402 70 68 0.0 3.0 0.00 0.00 0.00 93 1002.3
20260505054304 70 68 0.0 3.0 0.00 0.00 0.00 93 1002.3
20260505054203 70 68 0.0 3.0 0.00 0.00 0.00 93 1002.3
20260505054102 70 51 0.0 3.0 0.00 0.00 0.00 93 1002.3
20260505054005 70 51 0.0 3.0 0.00 0.00 0.00 93 1002.3
20260505053904 70 45 0.0 3.0 0.00 0.00 0.00 93 1002.3
20260505053805 70 54 0.0 2.0 0.00 0.00 0.00 93 1002.2
20260505053702 70 54 0.0 2.0 0.00 0.00 0.00 93 1002.3
20260505053605 70 54 0.0 2.0 0.00 0.00 0.00 93 1002.2
20260505053504 70 354 0.0 1.0 0.00 0.00 0.00 93 1002.3
20260505053403 70 354 0.0 1.0 0.00 0.00 0.00 93 1002.3
20260505053303 70 354 0.0 1.0 0.00 0.00 0.00 93 1002.3
20260505053205 70 345 0.0 1.0 0.00 0.00 0.00 93 1002.3
20260505053101 70 331 0.0 1.0 0.00 0.00 0.00 93 1002.3
20260505053005 70 331 0.0 1.0 0.00 0.00 0.00 93 1002.3
20260505052903 70 330 0.0 1.0 0.00 0.00 0.00 93 1002.3
20260505052803 70 330 0.0 1.0 0.00 0.00 0.00 93 1002.4
20260505052704 70 330 0.0 1.0 0.00 0.00 0.00 93 1002.5
20260505052559 70 197 0.0 2.0 0.00 0.00 0.00 93 1002.5
20260505052457 70 197 0.0 2.0 0.00 0.00 0.00 93 1002.5
20260505052350 70 197 0.0 2.0 0.00 0.00 0.00 93 1002.5
20260505052245 70 197 0.0 3.0 0.00 0.00 0.00 92 1002.5
20260505052141 70 258 0.0 3.0 0.00 0.00 0.00 92 1002.5
20260505052036 70 258 0.0 3.0 0.00 0.00 0.00 92 1002.5
20260505051931 70 258 0.0 3.0 0.00 0.00 0.00 92 1002.5
20260505051831 70 261 0.0 3.0 0.00 0.00 0.00 92 1002.5
20260505051731 70 261 0.0 3.0 0.00 0.00 0.00 92 1002.5
20260505051636 70 261 0.0 3.0 0.00 0.00 0.00 92 1002.5
20260505051522 70 203 0.0 3.0 0.00 0.00 0.00 92 1002.4
20260505051417 70 203 0.0 3.0 0.00 0.00 0.00 92 1002.5
20260505051316 70 203 0.0 3.0 0.00 0.00 0.00 92 1002.4
20260505051215 70 192 0.0 2.0 0.00 0.00 0.00 92 1002.5
20260505051115 70 192 0.0 2.0 0.00 0.00 0.00 92 1002.4
20260505051012 70 190 0.0 2.0 0.00 0.00 0.00 92 1002.5
20260505050913 70 190 1.0 2.0 0.00 0.00 0.00 92 1002.5
20260505050813 70 278 0.0 2.0 0.00 0.00 0.00 92 1002.5
20260505050713 70 290 0.0 1.0 0.00 0.00 0.00 92 1002.5
20260505050612 71 176 0.0 1.0 0.00 0.00 0.00 92 1002.6
20260505050514 70 176 0.0 1.0 0.00 0.00 0.00 92 1002.6
20260505050413 70 176 0.0 1.0 0.00 0.00 0.00 92 1002.6
20260505050314 71 179 0.0 1.0 0.00 0.00 0.00 92 1002.6
20260505050213 71 179 0.0 1.0 0.00 0.00 0.00 92 1002.6
20260505050113 71 179 0.0 1.0 0.00 0.00 0.00 92 1002.6
20260505041703 71 214 0.0 1.0 0.00 0.00 0.00 90 1002.6
20260505041604 71 214 0.0 2.0 0.00 0.00 0.00 90 1002.6
20260505041503 71 216 0.0 2.0 0.00 0.00 0.00 90 1002.6
20260505041403 71 216 0.0 2.0 0.00 0.00 0.00 90 1002.7
20260505041302 71 216 0.0 2.0 0.00 0.00 0.00 90 1002.6
20260505041204 72 214 0.0 2.0 0.00 0.00 0.00 90 1002.6
20260505041103 72 142 0.0 2.0 0.00 0.00 0.00 90 1002.6
20260505041004 72 142 0.0 2.0 0.00 0.00 0.00 90 1002.7
20260505040902 72 121 0.0 2.0 0.00 0.00 0.00 90 1002.6
20260505040802 72 121 1.0 2.0 0.00 0.00 0.00 90 1002.6
20260505040703 72 123 0.0 2.0 0.00 0.00 0.00 90 1002.7
20260505040604 72 240 0.0 3.0 0.00 0.00 0.00 90 1002.6
20260505040502 72 240 0.0 3.0 0.00 0.00 0.00 90 1002.6
20260505040401 72 234 0.0 3.0 0.00 0.00 0.00 90 1002.6
20260505040303 72 234 0.0 3.0 0.00 0.00 0.00 90 1002.6
20260505040203 72 234 0.0 3.0 0.00 0.00 0.00 90 1002.5
20260505040003 72 283 0.0 3.0 0.00 0.00 0.00 90 1002.5
20260505035904 72 234 0.0 3.0 0.00 0.00 0.00 90 1002.5
20260505035803 72 234 1.0 3.0 0.00 0.00 0.00 90 1002.4
20260505035703 72 224 0.0 3.0 0.00 0.00 0.00 90 1002.5
20260505035602 72 247 0.0 2.0 0.00 0.00 0.00 90 1002.5
20260505035505 72 217 0.0 2.0 0.00 0.00 0.00 90 1002.5
20260505035403 72 217 0.0 2.0 0.00 0.00 0.00 90 1002.6
20260505035304 72 200 0.0 2.0 0.00 0.00 0.00 90 1002.6
20260505035202 72 0 0.0 1.0 0.00 0.00 0.00 90 1002.7
20260505035104 72 155 0.0 2.0 0.00 0.00 0.00 90 1002.8
20260505035003 72 279 0.0 2.0 0.00 0.00 0.00 90 1002.9
20260505034904 72 281 0.0 2.0 0.00 0.00 0.00 90 1002.9
20260505034802 72 262 0.0 2.0 0.00 0.00 0.00 90 1003.0
20260505034703 72 262 0.0 2.0 0.00 0.00 0.00 90 1002.9
20260505034603 72 271 0.0 2.0 0.00 0.00 0.00 90 1002.9
20260505034505 72 271 0.0 2.0 0.00 0.00 0.00 89 1002.9
20260505034404 72 271 0.0 2.0 0.00 0.00 0.00 89 1002.9
20260505034302 72 272 0.0 2.0 0.00 0.00 0.00 89 1002.7
20260505034202 72 272 0.0 2.0 0.00 0.00 0.00 89 1002.7
20260505034103 72 179 0.0 1.0 0.00 0.00 0.00 89 1002.7
20260505034005 72 252 0.0 1.0 0.00 0.00 0.00 89 1002.7
20260505033904 72 210 0.0 1.0 0.00 0.00 0.00 89 1002.6
20260505033802 72 210 0.0 1.0 0.00 0.00 0.00 89 1002.7
20260505033702 72 210 0.0 2.0 0.00 0.00 0.00 89 1002.7
20260505033603 72 135 0.0 2.0 0.00 0.00 0.00 89 1002.7
20260505033503 72 135 0.0 2.0 0.00 0.00 0.00 89 1002.8
20260505033403 72 135 0.0 2.0 0.00 0.00 0.00 89 1002.7
20260505033304 72 140 0.0 2.0 0.00 0.00 0.00 89 1002.7
20260505033204 73 141 0.0 2.0 0.00 0.00 0.00 89 1002.7
20260505033104 73 252 0.0 2.0 0.00 0.00 0.00 89 1002.7
20260505033005 73 252 0.0 2.0 0.00 0.00 0.00 89 1002.7
20260505032904 73 252 1.0 2.0 0.00 0.00 0.00 89 1002.8
20260505032803 73 252 1.0 2.0 0.00 0.00 0.00 89 1002.7
20260505032703 73 282 0.0 2.0 0.00 0.00 0.00 89 1002.9
20260505032604 73 288 0.0 2.0 0.00 0.00 0.00 89 1002.9
20260505032502 73 186 0.0 2.0 0.00 0.00 0.00 89 1002.9
20260505032404 73 192 0.0 2.0 0.00 0.00 0.00 89 1003.0
20260505032304 73 197 0.0 2.0 0.00 0.00 0.00 89 1003.1
20260505032204 73 197 0.0 2.0 0.00 0.00 0.00 89 1003.0
20260505032106 73 197 0.0 2.0 0.00 0.00 0.00 89 1003.0
20260505032002 73 195 0.0 2.0 0.00 0.00 0.00 89 1003.0
20260505031902 73 221 0.0 2.0 0.00 0.00 0.00 89 1003.0
20260505031803 73 178 1.0 2.0 0.00 0.00 0.00 89 1003.0
20260505031703 73 290 0.0 2.0 0.00 0.00 0.00 89 1003.0
20260505031601 73 238 0.0 2.0 0.00 0.00 0.00 88 1002.9
20260505031503 73 238 0.0 2.0 0.00 0.00 0.00 88 1002.9
20260505031402 73 240 0.0 2.0 0.00 0.00 0.00 88 1002.9
20260505031302 73 240 1.0 2.0 0.00 0.00 0.00 88 1003.1
20260505031201 73 271 0.0 2.0 0.00 0.00 0.00 88 1002.9
20260505031056 73 159 0.0 2.0 0.00 0.00 0.00 88 1002.9
20260505030949 73 235 0.0 2.0 0.00 0.00 0.00 88 1002.8
20260505030846 73 235 0.0 2.0 0.00 0.00 0.00 88 1002.8
20260505030739 73 235 0.0 2.0 0.00 0.00 0.00 88 1002.8
20260505030638 73 235 1.0 2.0 0.00 0.00 0.00 88 1002.8
20260505030534 73 235 1.0 2.0 0.00 0.00 0.00 88 1002.9
20260505030434 73 333 0.0 1.0 0.00 0.00 0.00 88 1002.8
20260505030331 73 157 0.0 1.0 0.00 0.00 0.00 88 1002.8
20260505030233 73 109 0.0 2.0 0.00 0.00 0.00 88 1002.9
20260505030132 73 109 0.0 2.0 0.00 0.00 0.00 88 1002.8
20260505030028 73 109 0.0 2.0 0.00 0.00 0.00 88 1002.8
20260505025928 73 109 0.0 2.0 0.00 0.00 0.00 88 1002.8
20260505025818 73 109 0.0 2.0 0.00 0.00 0.00 88 1002.7
20260505025713 73 107 0.0 2.0 0.00 0.00 0.00 88 1002.7
20260505025611 73 109 0.0 2.0 0.00 0.00 0.00 88 1002.7
20260505025509 73 106 0.0 2.0 0.00 0.00 0.00 88 1002.7
20260505025420 73 106 0.0 5.0 0.00 0.00 0.00 88 1002.8
20260505025311 73 354 0.0 5.0 0.00 0.00 0.00 88 1002.7
20260505025210 74 90 0.0 5.0 0.00 0.00 0.00 88 1002.8
20260505025111 74 94 0.0 5.0 0.00 0.00 0.00 88 1002.8
20260505025012 74 94 1.0 5.0 0.00 0.00 0.00 88 1002.7
20260505024910 74 340 1.0 5.0 0.00 0.00 0.00 88 1002.7
20260505024809 74 179 0.0 5.0 0.00 0.00 0.00 88 1002.6
20260505024711 74 124 0.0 5.0 0.00 0.00 0.00 88 1002.6
20260505024609 74 124 1.0 5.0 0.00 0.00 0.00 88 1002.5
20260505024511 74 116 1.0 5.0 0.00 0.00 0.00 87 1002.6
20260505024410 74 214 1.0 3.0 0.00 0.00 0.00 87 1002.6
20260505024309 74 219 1.0 3.0 0.00 0.00 0.00 87 1002.6
20260505024210 74 125 0.0 3.0 0.00 0.00 0.00 87 1002.6
20260505024111 74 125 0.0 3.0 0.00 0.00 0.00 87 1002.6
20260505024009 74 243 0.0 3.0 0.00 0.00 0.00 87 1002.5
20260505023909 74 243 0.0 3.0 0.00 0.00 0.00 87 1002.5
20260505023811 74 243 0.0 3.0 0.00 0.00 0.00 87 1002.5
20260505023709 74 243 0.0 3.0 0.00 0.00 0.00 87 1002.5
20260505023610 74 243 0.0 3.0 0.00 0.00 0.00 87 1002.5
20260505023509 74 243 0.0 3.0 0.00 0.00 0.00 87 1002.5
20260505023411 74 241 1.0 3.0 0.00 0.00 0.00 87 1002.5
20260505023311 74 244 1.0 3.0 0.00 0.00 0.00 87 1002.5
20260505023209 74 238 0.0 3.0 0.00 0.00 0.00 87 1002.6
20260505023110 74 234 0.0 4.0 0.00 0.00 0.00 87 1002.5
20260505023010 74 234 0.0 4.0 0.00 0.00 0.00 88 1002.6
20260505022909 74 234 0.0 4.0 0.00 0.00 0.00 88 1002.5
20260505022810 74 234 0.0 4.0 0.00 0.00 0.00 87 1002.5
20260505022709 74 234 0.0 4.0 0.00 0.00 0.00 87 1002.5
20260505022609 74 269 0.0 4.0 0.00 0.00 0.00 87 1002.6
20260505022509 74 269 0.0 4.0 0.00 0.00 0.00 87 1002.5
20260505022410 74 283 0.0 4.0 0.00 0.00 0.00 87 1002.5
20260505022309 74 283 1.0 4.0 0.00 0.00 0.00 87 1002.5
20260505022209 74 173 1.0 4.0 0.00 0.00 0.00 87 1002.6
20260505022109 74 180 0.0 0.0 0.00 0.00 0.00 87 1002.6
20260505022009 74 180 0.0 0.0 0.00 0.00 0.00 87 1002.6
20260505021909 74 180 0.0 0.0 0.00 0.00 0.00 87 1002.5
20260505021810 74 180 0.0 0.0 0.00 0.00 0.00 87 1002.5
20260505021710 74 180 0.0 0.0 0.00 0.00 0.00 87 1002.5
20260505021610 74 180 0.0 0.0 0.00 0.00 0.00 87 1002.4
20260505021506 74 179 0.0 0.0 0.00 0.00 0.00 87 1002.3
20260505021403 74 179 0.0 0.0 0.00 0.00 0.00 87 1002.4
20260505021303 74 241 0.0 0.0 0.00 0.00 0.00 87 1002.4
20260505021204 74 243 0.0 0.0 0.00 0.00 0.00 87 1002.4
20260505021103 74 243 0.0 0.0 0.00 0.00 0.00 87 1002.4
20260505021005 74 243 0.0 0.0 0.00 0.00 0.00 87 1002.4
20260505020904 74 243 0.0 0.0 0.00 0.00 0.00 87 1002.4
20260505020803 74 243 0.0 1.0 0.00 0.00 0.00 87 1002.3
20260505020703 74 238 0.0 1.0 0.00 0.00 0.00 87 1002.4
20260505020605 74 238 0.0 2.0 0.00 0.00 0.00 87 1002.4
20260505020502 74 238 0.0 2.0 0.00 0.00 0.00 87 1002.4
20260505020403 74 233 0.0 2.0 0.00 0.00 0.00 87 1002.4
20260505020303 74 233 0.0 2.0 0.00 0.00 0.00 87 1002.4
20260505020202 74 295 0.0 2.0 0.00 0.00 0.00 87 1002.3
20260505020003 74 204 0.0 2.0 0.00 0.00 0.00 87 1002.4
20260505015904 74 204 0.0 2.0 0.00 0.00 0.00 87 1002.3
20260505015803 74 312 0.0 2.0 0.00 0.00 0.00 86 1002.4
20260505015702 74 266 0.0 2.0 0.00 0.00 0.00 86 1002.4
20260505015602 74 337 0.0 2.0 0.00 0.00 0.00 86 1002.3
20260505015504 74 269 0.0 2.0 0.00 0.00 0.00 86 1002.3
20260505015404 74 196 0.0 2.0 0.00 0.00 0.00 86 1002.4
20260505015304 74 195 0.0 2.0 0.00 0.00 0.00 86 1002.3
20260505015205 74 195 0.0 2.0 0.00 0.00 0.00 86 1002.4
20260505015102 74 213 0.0 2.0 0.00 0.00 0.00 86 1002.4
20260505015003 74 288 0.0 2.0 0.00 0.00 0.00 86 1002.4
20260505014903 74 289 0.0 2.0 0.00 0.00 0.00 86 1002.3
20260505014802 74 157 0.0 2.0 0.00 0.00 0.00 86 1002.3
20260505014654 74 155 0.0 2.0 0.00 0.00 0.00 86 1002.4
20260505014552 74 217 0.0 2.0 0.00 0.00 0.00 86 1002.3
20260505014451 75 224 0.0 1.0 0.00 0.00 0.00 86 1002.3
20260505014343 75 149 0.0 1.0 0.00 0.00 0.00 86 1002.2
20260505014239 75 148 0.0 1.0 0.00 0.00 0.00 86 1002.3
20260505014131 75 131 0.0 2.0 0.00 0.00 0.00 86 1002.3
20260505014032 75 131 0.0 2.0 0.00 0.00 0.00 86 1002.3
20260505013932 75 128 0.0 2.0 0.00 0.00 0.00 85 1002.3
20260505013832 75 128 0.0 3.0 0.00 0.00 0.00 85 1002.3
20260505013732 75 127 0.0 3.0 0.00 0.00 0.00 85 1002.3
20260505013633 75 127 0.0 3.0 0.00 0.00 0.00 85 1002.3
20260505013531 75 133 0.0 3.0 0.00 0.00 0.00 85 1002.4
20260505013432 75 133 0.0 3.0 0.00 0.00 0.00 85 1002.3
20260505013315 75 133 1.0 3.0 0.00 0.00 0.00 85 1002.3
20260505013215 75 351 0.0 3.0 0.00 0.00 0.00 85 1002.3
20260505013110 75 231 0.0 3.0 0.00 0.00 0.00 84 1002.2
20260505013009 75 186 1.0 3.0 0.00 0.00 0.00 84 1002.3
20260505012909 75 186 1.0 3.0 0.00 0.00 0.00 84 1002.2
20260505012808 75 193 0.0 0.0 0.00 0.00 0.00 84 1002.3
20260505012709 75 185 0.0 0.0 0.00 0.00 0.00 84 1002.2
20260505012608 75 226 0.0 0.0 0.00 0.00 0.00 84 1002.2
20260505012508 75 226 0.0 0.0 0.00 0.00 0.00 84 1002.2
20260505012408 75 288 0.0 0.0 0.00 0.00 0.00 84 1002.2
20260505012309 75 288 0.0 0.0 0.00 0.00 0.00 84 1002.2
20260505012209 75 288 0.0 0.0 0.00 0.00 0.00 84 1002.2
20260505012109 75 288 0.0 0.0 0.00 0.00 0.00 84 1002.2
20260505012009 75 288 0.0 0.0 0.00 0.00 0.00 84 1002.2
20260505011908 75 265 0.0 0.0 0.00 0.00 0.00 84 1002.1
20260505011807 75 265 0.0 0.0 0.00 0.00 0.00 84 1002.2
20260505011707 75 265 0.0 0.0 0.00 0.00 0.00 84 1002.1
20260505011610 75 265 0.0 0.0 0.00 0.00 0.00 84 1002.1
20260505011509 76 265 0.0 0.0 0.00 0.00 0.00 83 1002.1
20260505011409 76 262 0.0 0.0 0.00 0.00 0.00 83 1002.1
20260505011309 76 262 0.0 0.0 0.00 0.00 0.00 83 1002.1
20260505011209 76 244 0.0 0.0 0.00 0.00 0.00 83 1002.1
20260505011107 76 244 0.0 0.0 0.00 0.00 0.00 83 1002.1
20260505011007 76 248 0.0 0.0 0.00 0.00 0.00 83 1002.0
20260505010908 76 203 0.0 0.0 0.00 0.00 0.00 83 1002.1
20260505010808 76 203 0.0 0.0 0.00 0.00 0.00 83 1002.0
20260505010708 76 203 0.0 0.0 0.00 0.00 0.00 83 1002.0
20260505010610 76 203 0.0 0.0 0.00 0.00 0.00 83 1002.0
20260505010508 76 203 0.0 0.0 0.00 0.00 0.00 83 1002.0
20260505010409 76 203 0.0 0.0 0.00 0.00 0.00 83 1002.1
20260505010308 76 203 0.0 0.0 0.00 0.00 0.00 83 1002.1
20260505010208 76 203 0.0 0.0 0.00 0.00 0.00 83 1002.0
20260505010109 76 203 0.0 0.0 0.00 0.00 0.00 83 1002.2
20260505010009 76 203 0.0 0.0 0.00 0.00 0.00 83 1002.2
20260505005908 76 203 0.0 0.0 0.00 0.00 0.00 82 1002.2
20260505005808 76 203 0.0 0.0 0.00 0.00 0.00 82 1002.2
20260505005708 76 203 0.0 0.0 0.00 0.00 0.00 82 1002.3
20260505005608 76 257 0.0 0.0 0.00 0.00 0.00 82 1002.3
20260505005508 76 257 0.0 0.0 0.00 0.00 0.00 82 1002.2
20260505005410 76 243 0.0 0.0 0.00 0.00 0.00 82 1002.1
20260505005309 76 231 0.0 0.0 0.00 0.00 0.00 82 1002.2
20260505005207 76 231 0.0 0.0 0.00 0.00 0.00 82 1002.2
20260505005108 76 231 0.0 0.0 0.00 0.00 0.00 82 1002.1
20260505005013 76 231 0.0 0.0 0.00 0.00 0.00 82 1002.2
20260505004906 77 231 0.0 0.0 0.00 0.00 0.00 82 1002.2
20260505004804 77 219 0.0 0.0 0.00 0.00 0.00 82 1002.1
20260505004703 77 219 0.0 0.0 0.00 0.00 0.00 82 1002.1
20260505004603 77 250 0.0 0.0 0.00 0.00 0.00 82 1002.0
20260505004502 77 155 0.0 0.0 0.00 0.00 0.00 82 1002.0
20260505004404 77 155 0.0 0.0 0.00 0.00 0.00 82 1002.0
20260505004304 77 155 0.0 0.0 0.00 0.00 0.00 82 1002.0
20260505004203 77 155 0.0 0.0 0.00 0.00 0.00 82 1002.0
20260505004103 77 219 0.0 0.0 0.00 0.00 0.00 81 1002.1
20260505004003 77 219 0.0 0.0 0.00 0.00 0.00 81 1002.1
20260505003902 77 219 0.0 0.0 0.00 0.00 0.00 81 1002.1
20260505003804 77 202 0.0 0.0 0.00 0.00 0.00 81 1002.0
20260505003702 77 200 0.0 0.0 0.00 0.00 0.00 81 1002.1
20260505003602 77 188 0.0 0.0 0.00 0.00 0.00 81 1002.0
20260505003504 77 188 0.0 0.0 0.00 0.00 0.00 81 1002.1
20260505003402 77 188 0.0 0.0 0.00 0.00 0.00 81 1002.1
20260505003304 77 162 0.0 0.0 0.00 0.00 0.00 81 1002.1
20260505003205 77 161 0.0 0.0 0.00 0.00 0.00 81 1002.1
20260505003104 77 162 0.0 0.0 0.00 0.00 0.00 81 1002.1
20260505003003 77 162 0.0 0.0 0.00 0.00 0.00 81 1002.1
20260505002903 77 148 0.0 0.0 0.00 0.00 0.00 81 1002.1
20260505002803 77 148 0.0 0.0 0.00 0.00 0.00 81 1002.1
20260505002702 77 147 0.0 0.0 0.00 0.00 0.00 81 1002.0
20260505002602 77 237 0.0 0.0 0.00 0.00 0.00 81 1002.1
20260505002504 77 298 0.0 0.0 0.00 0.00 0.00 81 1002.0
20260505002402 77 296 0.0 0.0 0.00 0.00 0.00 81 1002.1
20260505002300 77 223 0.0 0.0 0.00 0.00 0.00 81 1002.1
20260505002158 78 224 0.0 0.0 0.00 0.00 0.00 81 1002.0
20260505002053 78 216 0.0 0.0 0.00 0.00 0.00 81 1002.0
20260505001947 78 217 0.0 3.0 0.00 0.00 0.00 81 1002.0
20260505001839 78 217 0.0 3.0 0.00 0.00 0.00 81 1002.0
20260505001732 78 14 0.0 3.0 0.00 0.00 0.00 81 1002.0
20260505001633 78 14 0.0 3.0 0.00 0.00 0.00 81 1002.1
20260505001531 78 310 0.0 3.0 0.00 0.00 0.00 81 1002.0
20260505001434 78 310 0.0 3.0 0.00 0.00 0.00 81 1002.1
20260505001332 78 310 0.0 3.0 0.00 0.00 0.00 81 1002.0
20260505001231 78 307 0.0 3.0 0.00 0.00 0.00 81 1002.0
20260505001131 78 307 0.0 3.0 0.00 0.00 0.00 81 1002.0
20260505001031 78 128 0.0 3.0 0.00 0.00 0.00 81 1002.0
20260505000931 78 114 0.0 1.0 0.00 0.00 0.00 81 1002.0
20260505000832 78 162 0.0 1.0 0.00 0.00 0.00 80 1002.0
20260505000732 78 162 0.0 1.0 0.00 0.00 0.00 81 1002.0
20260505000632 78 259 0.0 1.0 0.00 0.00 0.00 80 1002.1
20260505000532 78 259 0.0 1.0 0.00 0.00 0.00 80 1002.1
20260505000432 78 259 0.0 1.0 0.00 0.00 0.00 80 1002.1
20260505000325 78 169 0.0 2.0 0.00 0.00 0.00 81 1002.2
20260505000222 78 250 0.0 2.0 0.00 0.00 0.00 80 1002.2
20260505000119 78 221 0.0 2.0 0.00 0.00 0.00 80 1002.3
20260505000007 78 221 0.0 2.0 0.00 0.00 0.00 80 1002.2
20260504235906 78 221 0.0 2.0 0.00 0.00 0.00 81 1002.2
20260504235806 78 221 0.0 2.0 0.00 0.00 0.00 81 1002.2
20260504235707 78 221 0.0 4.0 0.00 0.00 0.00 80 1002.2
20260504235606 78 221 0.0 5.0 0.00 0.00 0.00 80 1002.2
20260504235505 78 326 0.0 5.0 0.00 0.00 0.00 80 1002.1
20260504235405 78 89 0.0 5.0 0.00 0.00 0.00 80 1002.2
20260504235306 78 245 0.0 5.0 0.00 0.00 0.00 80 1002.2
20260504235206 78 202 0.0 5.0 0.00 0.00 0.00 80 1002.2
20260504235106 78 344 0.0 5.0 0.00 0.00 0.00 80 1002.3
20260504235007 78 179 0.0 5.0 0.00 0.00 0.00 80 1002.3
20260504234905 79 255 0.0 5.0 0.00 0.00 0.00 80 1002.3
20260504234812 79 252 1.0 5.0 0.00 0.00 0.00 80 1002.3
20260504234707 79 195 0.0 5.0 0.00 0.00 0.00 80 1002.2
20260504234605 79 265 0.0 1.0 0.00 0.00 0.00 80 1002.3
20260504234505 79 265 0.0 4.0 0.00 0.00 0.00 80 1002.3
20260504234405 79 265 0.0 4.0 0.00 0.00 0.00 80 1002.2
20260504234305 79 265 0.0 4.0 0.00 0.00 0.00 80 1002.2
20260504234206 79 265 0.0 4.0 0.00 0.00 0.00 80 1002.2
20260504234106 79 292 0.0 4.0 0.00 0.00 0.00 80 1002.2
20260504234007 79 292 0.0 4.0 0.00 0.00 0.00 80 1002.2
20260504233905 79 292 0.0 4.0 0.00 0.00 0.00 80 1002.2
20260504233808 79 292 0.0 4.0 0.00 0.00 0.00 80 1002.2
20260504233704 79 293 2.0 4.0 0.00 0.00 0.00 80 1002.2
20260504233605 79 293 1.0 4.0 0.00 0.00 0.00 80 1002.1
20260504233451 79 188 0.0 4.0 0.00 0.00 0.00 80 1002.1
20260504233338 79 186 0.0 4.0 0.00 0.00 0.00 80 1002.1
20260504233234 79 186 0.0 4.0 0.00 0.00 0.00 80 1002.2
20260504233132 79 186 1.0 4.0 0.00 0.00 0.00 80 1002.1
20260504233031 79 128 1.0 4.0 0.00 0.00 0.00 80 1002.2
20260504232932 79 316 0.0 1.0 0.00 0.00 0.00 80 1002.2
20260504232832 79 285 0.0 2.0 0.00 0.00 0.00 80 1002.3
20260504232731 79 285 0.0 2.0 0.00 0.00 0.00 80 1002.2
20260504232631 79 224 0.0 2.0 0.00 0.00 0.00 80 1002.3
20260504232532 79 234 0.0 3.0 0.00 0.00 0.00 80 1002.3
20260504232432 79 234 0.0 3.0 0.00 0.00 0.00 80 1002.3
20260504232332 79 234 0.0 3.0 0.00 0.00 0.00 80 1002.3
20260504232231 79 278 0.0 3.0 0.00 0.00 0.00 80 1002.4
20260504232133 79 158 0.0 3.0 0.00 0.00 0.00 80 1002.4
20260504232030 79 221 0.0 3.0 0.00 0.00 0.00 80 1002.4
20260504231931 79 220 0.0 3.0 0.00 0.00 0.00 79 1002.4
20260504231830 79 300 0.0 3.0 0.00 0.00 0.00 79 1002.4
20260504231725 79 310 0.0 3.0 0.00 0.00 0.00 79 1002.4
20260504231624 80 279 1.0 3.0 0.00 0.00 0.00 79 1002.3
20260504231519 80 327 1.0 3.0 0.00 0.00 0.00 79 1002.3
20260504231417 80 142 0.0 3.0 0.00 0.00 0.00 79 1002.4
20260504231313 80 264 0.0 3.0 0.00 0.00 0.00 79 1002.3
20260504231205 80 264 1.0 3.0 0.00 0.00 0.00 79 1002.4
20260504231105 80 152 1.0 3.0 0.00 0.00 0.00 79 1002.4
20260504231004 80 151 2.0 3.0 0.00 0.00 0.00 79 1002.4
20260504230906 80 275 1.0 3.0 0.00 0.00 0.00 79 1002.4
20260504230804 80 230 0.0 3.0 0.00 0.00 0.00 79 1002.4
20260504230705 80 230 0.0 3.0 0.00 0.00 0.00 79 1002.4
20260504230607 80 228 0.0 3.0 0.00 0.00 0.00 79 1002.5
20260504230506 80 228 1.0 3.0 0.00 0.00 0.00 79 1002.5
20260504230404 80 200 1.0 3.0 0.00 0.00 0.00 79 1002.6
20260504230305 80 152 1.0 3.0 0.00 0.00 0.00 79 1002.6
20260504230204 80 49 1.0 3.0 0.00 0.00 0.00 79 1002.6
20260504230105 80 333 1.0 4.0 0.00 0.00 0.00 79 1002.6
20260504230006 80 48 1.0 4.0 0.00 0.00 0.00 78 1002.6
20260504225906 80 25 1.0 4.0 0.00 0.00 0.00 78 1002.6
20260504225804 80 11 0.0 4.0 0.00 0.00 0.00 78 1002.6
20260504225706 80 206 0.0 4.0 0.00 0.00 0.00 78 1002.6
20260504225604 80 206 0.0 4.0 0.00 0.00 0.00 78 1002.6
20260504225507 80 186 1.0 4.0 0.00 0.00 0.00 78 1002.6
20260504225406 80 234 2.0 4.0 0.00 0.00 0.00 78 1002.7
20260504225305 80 248 3.0 4.0 0.00 0.00 0.00 78 1002.8
20260504225205 80 148 2.0 4.0 0.00 0.00 0.00 78 1002.7
20260504225105 80 182 1.0 3.0 0.00 0.00 0.00 78 1002.8
20260504225005 80 186 1.0 4.0 0.00 0.00 0.00 78 1002.7
20260504224905 80 155 1.0 4.0 0.00 0.00 0.00 78 1002.8
20260504224804 80 248 1.0 4.0 0.00 0.00 0.00 78 1002.7
20260504224704 80 295 1.0 4.0 0.00 0.00 0.00 78 1002.7
20260504224604 80 269 0.0 4.0 0.00 0.00 0.00 78 1002.7
20260504224506 80 224 0.0 4.0 0.00 0.00 0.00 78 1002.7
20260504224404 80 224 0.0 4.0 0.00 0.00 0.00 78 1002.7
20260504224304 80 224 0.0 4.0 0.00 0.00 0.00 77 1002.6
20260504224204 80 204 1.0 4.0 0.00 0.00 0.00 77 1002.6
20260504224105 80 202 1.0 4.0 0.00 0.00 0.00 77 1002.6
20260504224004 80 216 1.0 4.0 0.00 0.00 0.00 77 1002.6
20260504223903 80 216 1.0 4.0 0.00 0.00 0.00 77 1002.6
20260504223802 80 162 0.0 4.0 0.00 0.00 0.00 77 1002.6
20260504223703 80 189 0.0 4.0 0.00 0.00 0.00 77 1002.6
20260504223603 80 186 1.0 4.0 0.00 0.00 0.00 77 1002.6
20260504223505 80 148 1.0 4.0 0.00 0.00 0.00 77 1002.7
20260504223404 80 202 1.0 4.0 0.00 0.00 0.00 77 1002.7
20260504223303 80 202 2.0 4.0 0.00 0.00 0.00 77 1002.7
20260504223203 80 207 2.0 4.0 0.00 0.00 0.00 77 1002.7
20260504223104 80 141 0.0 2.0 0.00 0.00 0.00 77 1002.7
20260504223004 80 202 0.0 2.0 0.00 0.00 0.00 77 1002.7
20260504222903 80 206 0.0 3.0 0.00 0.00 0.00 77 1002.8
20260504222803 80 197 0.0 3.0 0.00 0.00 0.00 77 1002.8
20260504222702 80 121 0.0 3.0 0.00 0.00 0.00 77 1002.8
20260504222602 81 276 0.0 3.0 0.00 0.00 0.00 77 1002.8
20260504222503 80 327 0.0 3.0 0.00 0.00 0.00 77 1002.8
20260504222402 81 327 0.0 3.0 0.00 0.00 0.00 77 1002.8
20260504222304 81 309 0.0 4.0 0.00 0.00 0.00 77 1002.8
20260504222204 81 261 0.0 4.0 0.00 0.00 0.00 77 1002.9
20260504222100 81 261 1.0 4.0 0.00 0.00 0.00 77 1002.8
20260504221957 81 240 0.0 4.0 0.00 0.00 0.00 77 1002.8
20260504221852 81 162 1.0 4.0 0.00 0.00 0.00 77 1002.8
20260504221751 81 162 1.0 4.0 0.00 0.00 0.00 77 1002.8
20260504221649 81 279 0.0 4.0 0.00 0.00 0.00 77 1002.8
20260504221550 81 90 0.0 4.0 0.00 0.00 0.00 77 1002.8
20260504221443 81 90 1.0 4.0 0.00 0.00 0.00 76 1002.9
20260504221341 81 258 1.0 4.0 0.00 0.00 0.00 77 1002.9
20260504221231 81 221 1.0 2.0 0.00 0.00 0.00 77 1002.9
20260504221132 81 296 1.0 2.0 0.00 0.00 0.00 77 1002.9
20260504221032 81 137 0.0 2.0 0.00 0.00 0.00 77 1002.9
20260504220931 81 131 0.0 2.0 0.00 0.00 0.00 77 1002.9
20260504220832 81 147 0.0 2.0 0.00 0.00 0.00 77 1002.9
20260504220731 81 140 0.0 2.0 0.00 0.00 0.00 77 1002.9
20260504220630 81 278 0.0 2.0 0.00 0.00 0.00 77 1002.9
20260504220531 81 278 1.0 2.0 0.00 0.00 0.00 77 1003.0
20260504220433 81 193 1.0 2.0 0.00 0.00 0.00 77 1003.1
20260504220332 81 149 0.0 2.0 0.00 0.00 0.00 77 1003.1
20260504220232 81 196 0.0 2.0 0.00 0.00 0.00 77 1003.1
20260504220124 81 196 0.0 2.0 0.00 0.00 0.00 77 1003.1
20260504220021 81 196 0.0 3.0 0.00 0.00 0.00 77 1003.1
20260504215921 81 196 0.0 3.0 0.00 0.00 0.00 77 1003.1
20260504215817 81 196 0.0 3.0 0.00 0.00 0.00 76 1003.0
20260504215713 81 196 0.0 3.0 0.00 0.00 0.00 76 1003.1
20260504215608 81 183 1.0 3.0 0.00 0.00 0.00 76 1003.1
20260504215506 81 182 1.0 3.0 0.00 0.00 0.00 76 1003.1
20260504215403 81 190 0.0 5.0 0.00 0.00 0.00 76 1003.2
20260504215312 81 228 1.0 5.0 0.00 0.00 0.00 76 1003.1
20260504215203 81 228 1.0 5.0 0.00 0.00 0.00 76 1003.2
20260504215103 81 302 0.0 5.0 0.00 0.00 0.00 76 1003.1
20260504215003 81 237 0.0 5.0 0.00 0.00 0.00 76 1003.1
20260504214902 81 199 0.0 5.0 0.00 0.00 0.00 76 1003.1
20260504214804 81 138 0.0 5.0 0.00 0.00 0.00 76 1003.1
20260504214703 81 125 0.0 5.0 0.00 0.00 0.00 75 1003.2
20260504214603 81 127 1.0 5.0 0.00 0.00 0.00 75 1003.2
20260504214459 81 124 1.0 5.0 0.00 0.00 0.00 75 1003.3
20260504214349 81 176 0.0 3.0 0.00 0.00 0.00 76 1003.3
20260504214246 81 176 1.0 3.0 0.00 0.00 0.00 76 1003.2
20260504214142 81 247 1.0 3.0 0.00 0.00 0.00 76 1003.2
20260504214035 81 130 0.0 3.0 0.00 0.00 0.00 76 1003.2
20260504213932 82 130 1.0 3.0 0.00 0.00 0.00 76 1003.3
20260504213832 82 214 0.0 3.0 0.00 0.00 0.00 76 1003.3
20260504213731 82 278 0.0 3.0 0.00 0.00 0.00 75 1003.3
20260504213630 82 278 1.0 3.0 0.00 0.00 0.00 75 1003.3
20260504213525 82 278 1.0 3.0 0.00 0.00 0.00 75 1003.5
20260504213424 82 257 1.0 3.0 0.00 0.00 0.00 75 1003.5
20260504213320 82 185 1.0 3.0 0.00 0.00 0.00 75 1003.5
20260504213213 82 213 1.0 3.0 0.00 0.00 0.00 76 1003.4
20260504213103 82 192 1.0 3.0 0.00 0.00 0.00 76 1003.5
20260504213004 82 186 1.0 3.0 0.00 0.00 0.00 76 1003.5
20260504212903 82 248 1.0 3.0 0.00 0.00 0.00 76 1003.5
20260504212802 82 300 1.0 3.0 0.00 0.00 0.00 76 1003.4
20260504212702 82 272 1.0 3.0 0.00 0.00 0.00 76 1003.4
20260504212603 82 272 0.0 3.0 0.00 0.00 0.00 76 1003.4
20260504212505 82 223 0.0 1.0 0.00 0.00 0.00 75 1003.4
20260504212404 82 223 0.0 1.0 0.00 0.00 0.00 75 1003.5
20260504212304 82 223 0.0 1.0 0.00 0.00 0.00 75 1003.5
20260504212203 82 223 0.0 1.0 0.00 0.00 0.00 75 1003.5
20260504212103 82 185 0.0 1.0 0.00 0.00 0.00 75 1003.6
20260504212004 82 183 0.0 1.0 0.00 0.00 0.00 75 1003.5
20260504211902 0 151 1.0 1.0 0.00 0.00 0.00 1003.5
20260504211804 0 0.0 0.0 0.00 0.00 0.00 1003.6
20260504211701 0 0.0 0.0 0.00 0.00 0.00 1003.6
20260504211603 82 252 0.0 2.0 0.00 0.00 0.00 75 1003.7
20260504211502 82 252 0.0 2.0 0.00 0.00 0.00 75 1003.6
20260504211401 82 252 0.0 2.0 0.00 0.00 0.00 75 1003.7
20260504211301 82 252 0.0 2.0 0.00 0.00 0.00 75 1003.5
20260504211200 82 252 0.0 3.0 0.00 0.00 0.00 75 1003.6
20260504211059 82 252 0.0 3.0 0.00 0.00 0.00 75 1003.6
20260504211000 82 252 0.0 3.0 0.00 0.00 0.00 75 1003.6
20260504210904 82 252 0.0 3.0 0.00 0.00 0.00 75 1003.7
20260504210759 82 252 0.0 3.0 0.00 0.00 0.00 75 1003.8
20260504210700 82 252 0.0 3.0 0.00 0.00 0.00 75 1003.8
20260504210559 82 147 0.0 3.0 0.00 0.00 0.00 75 1003.8
20260504210458 82 148 0.0 3.0 0.00 0.00 0.00 75 1003.8
20260504210359 82 137 1.0 3.0 0.00 0.00 0.00 75 1003.7
20260504210258 82 192 0.0 3.0 0.00 0.00 0.00 75 1003.8
20260504210159 82 228 0.0 3.0 0.00 0.00 0.00 75 1003.8
20260504210059 82 180 1.0 3.0 0.00 0.00 0.00 75 1003.7
20260504210001 82 0 1.0 3.0 0.00 0.00 0.00 75 1003.8
20260504205859 82 85 0.0 3.0 0.00 0.00 0.00 75 1003.8
20260504205757 82 245 0.0 3.0 0.00 0.00 0.00 75 1003.9
20260504205658 82 338 1.0 3.0 0.00 0.00 0.00 74 1003.9
20260504205558 82 89 1.0 3.0 0.00 0.00 0.00 74 1003.9
20260504205458 82 164 0.0 3.0 0.00 0.00 0.00 75 1003.8
20260504205357 82 161 1.0 3.0 0.00 0.00 0.00 75 1003.9
20260504205259 82 161 1.0 3.0 0.00 0.00 0.00 75 1003.9
20260504205158 82 235 1.0 3.0 0.00 0.00 0.00 75 1003.9
20260504205104 82 240 2.0 3.0 0.00 0.00 0.00 75 1003.9
20260504204957 82 230 1.0 3.0 0.00 0.00 0.00 75 1003.9
20260504204857 82 234 1.0 4.0 0.00 0.00 0.00 75 1003.9
20260504204757 82 21 0.0 4.0 0.00 0.00 0.00 75 1003.9
20260504204658 82 340 0.0 4.0 0.00 0.00 0.00 75 1003.9
20260504204558 81 175 0.0 4.0 0.00 0.00 0.00 75 1003.9
20260504204457 81 175 1.0 4.0 0.00 0.00 0.00 75 1003.9
20260504204358 81 144 1.0 4.0 0.00 0.00 0.00 75 1004.0
20260504204257 81 72 1.0 4.0 0.00 0.00 0.00 74 1004.0
20260504204158 81 124 0.0 4.0 0.00 0.00 0.00 74 1003.9
20260504204058 81 197 1.0 4.0 0.00 0.00 0.00 74 1004.0
20260504203957 81 240 2.0 4.0 0.00 0.00 0.00 75 1004.2
20260504203859 81 271 2.0 4.0 0.00 0.00 0.00 75 1004.2
20260504203757 81 276 2.0 4.0 0.00 0.00 0.00 75 1004.2
20260504203659 81 248 1.0 3.0 0.00 0.00 0.00 75 1004.3
20260504203559 81 159 1.0 3.0 0.00 0.00 0.00 75 1004.2
20260504203458 81 151 1.0 3.0 0.00 0.00 0.00 76 1004.3
20260504203357 81 133 1.0 3.0 0.00 0.00 0.00 76 1004.3
20260504203300 81 63 0.0 3.0 0.00 0.00 0.00 76 1004.2
20260504203200 81 145 0.0 3.0 0.00 0.00 0.00 75 1004.2
20260504203057 81 317 0.0 3.0 0.00 0.00 0.00 75 1004.1
20260504202959 81 309 0.0 3.0 0.00 0.00 0.00 75 1004.2
20260504202857 81 309 0.0 3.0 0.00 0.00 0.00 75 1004.2
20260504202758 81 309 0.0 3.0 0.00 0.00 0.00 75 1004.2
20260504202657 81 250 0.0 3.0 0.00 0.00 0.00 75 1004.3
20260504202558 81 54 0.0 3.0 0.00 0.00 0.00 75 1004.4
20260504202458 81 86 0.0 3.0 0.00 0.00 0.00 75 1004.3
20260504202358 81 83 1.0 3.0 0.00 0.00 0.00 75 1004.3
20260504202257 81 171 1.0 3.0 0.00 0.00 0.00 75 1004.4
20260504202158 81 171 0.0 3.0 0.00 0.00 0.00 75 1004.4
20260504202056 81 147 1.0 3.0 0.00 0.00 0.00 75 1004.4
20260504201957 81 226 1.0 3.0 0.00 0.00 0.00 75 1004.4
20260504201858 81 254 1.0 3.0 0.00 0.00 0.00 76 1004.4
20260504201758 81 149 1.0 3.0 0.00 0.00 0.00 76 1004.4
20260504201657 81 195 0.0 3.0 0.00 0.00 0.00 76 1004.4
20260504201608 81 224 1.0 3.0 0.00 0.00 0.00 76 1004.5
20260504201459 81 226 1.0 3.0 0.00 0.00 0.00 75 1004.5
20260504201357 81 262 0.0 3.0 0.00 0.00 0.00 75 1004.6
20260504201256 81 69 0.0 3.0 0.00 0.00 0.00 75 1004.6
20260504201158 81 71 1.0 3.0 0.00 0.00 0.00 75 1004.6
20260504201058 81 135 1.0 3.0 0.00 0.00 0.00 75 1004.8
20260504200957 81 182 1.0 2.0 0.00 0.00 0.00 75 1004.8
20260504200857 81 151 1.0 2.0 0.00 0.00 0.00 75 1004.8
20260504200757 81 289 0.0 1.0 0.00 0.00 0.00 75 1004.8
20260504200658 81 269 0.0 2.0 0.00 0.00 0.00 75 1004.7
20260504200558 81 203 0.0 2.0 0.00 0.00 0.00 75 1004.7
20260504200452 81 250 0.0 2.0 0.00 0.00 0.00 75 1004.8
20260504200349 81 189 0.0 2.0 0.00 0.00 0.00 75 1004.7
20260504200242 81 121 0.0 2.0 0.00 0.00 0.00 75 1004.8
20260504200141 81 121 0.0 2.0 0.00 0.00 0.00 75 1004.8
20260504200039 81 118 0.0 2.0 0.00 0.00 0.00 75 1004.8
20260504195937 81 128 1.0 2.0 0.00 0.00 0.00 75 1004.8
20260504195837 81 121 1.0 2.0 0.00 0.00 0.00 75 1004.9
20260504195731 81 134 1.0 2.0 0.00 0.00 0.00 75 1005.0
20260504195632 81 241 1.0 2.0 0.00 0.00 0.00 74 1005.0
20260504195532 81 298 1.0 2.0 0.00 0.00 0.00 74 1005.0
20260504195431 81 213 1.0 2.0 0.00 0.00 0.00 75 1005.1
20260504195332 81 248 1.0 2.0 0.00 0.00 0.00 75 1005.1
20260504195232 81 248 1.0 4.0 0.00 0.00 0.00 75 1005.1
20260504195131 81 206 0.0 4.0 0.00 0.00 0.00 75 1005.2
20260504195032 81 196 0.0 4.0 0.00 0.00 0.00 74 1005.1
20260504194932 81 196 0.0 4.0 0.00 0.00 0.00 74 1005.0
20260504194831 81 196 0.0 4.0 0.00 0.00 0.00 74 1005.0
20260504194731 81 188 0.0 4.0 0.00 0.00 0.00 74 1005.1
20260504194633 81 185 0.0 4.0 0.00 0.00 0.00 74 1005.1
20260504194533 81 190 1.0 4.0 0.00 0.00 0.00 74 1005.2
20260504194432 81 189 1.0 4.0 0.00 0.00 0.00 75 1005.2
20260504194332 81 289 0.0 4.0 0.00 0.00 0.00 75 1005.2
20260504194232 81 334 0.0 2.0 0.00 0.00 0.00 75 1005.3
20260504194130 81 334 0.0 3.0 0.00 0.00 0.00 75 1005.2
20260504194029 81 336 1.0 3.0 0.00 0.00 0.00 75 1005.3
20260504193928 81 319 1.0 3.0 0.00 0.00 0.00 75 1005.3
20260504193815 81 320 1.0 3.0 0.00 0.00 0.00 75 1005.3
20260504193708 81 324 0.0 3.0 0.00 0.00 0.00 75 1005.2
20260504193603 81 251 0.0 3.0 0.00 0.00 0.00 74 1005.2
20260504193504 81 255 1.0 3.0 0.00 0.00 0.00 74 1005.2
20260504193403 81 278 1.0 3.0 0.00 0.00 0.00 74 1005.2
20260504193304 81 268 1.0 3.0 0.00 0.00 0.00 75 1005.2
20260504193206 81 176 1.0 3.0 0.00 0.00 0.00 75 1005.2
20260504193103 81 262 1.0 3.0 0.00 0.00 0.00 75 1005.2
20260504193004 81 262 2.0 3.0 0.00 0.00 0.00 75 1005.3
20260504192857 81 310 1.0 3.0 0.00 0.00 0.00 75 1005.3
20260504192757 81 319 1.0 2.0 0.00 0.00 0.00 75 1005.3
20260504192656 81 337 0.0 2.0 0.00 0.00 0.00 74 1005.3
20260504192557 81 102 0.0 1.0 0.00 0.00 0.00 74 1005.3
20260504192456 81 100 0.0 1.0 0.00 0.00 0.00 74 1005.3
20260504192357 81 210 1.0 1.0 0.00 0.00 0.00 74 1005.3
20260504192256 81 140 1.0 1.0 0.00 0.00 0.00 74 1005.4
20260504192156 81 133 0.0 2.0 0.00 0.00 0.00 74 1005.4
20260504192056 81 289 0.0 2.0 0.00 0.00 0.00 74 1005.4
20260504191955 81 288 0.0 2.0 0.00 0.00 0.00 75 1005.3
20260504191857 81 141 0.0 2.0 0.00 0.00 0.00 75 1005.3
20260504191757 81 183 0.0 2.0 0.00 0.00 0.00 75 1005.3
20260504191657 81 329 0.0 2.0 0.00 0.00 0.00 75 1005.3
20260504191557 81 271 0.0 2.0 0.00 0.00 0.00 75 1005.3
20260504191457 81 354 0.0 2.0 0.00 0.00 0.00 75 1005.4
20260504191356 81 114 1.0 2.0 0.00 0.00 0.00 74 1005.4
20260504191257 81 99 0.0 2.0 0.00 0.00 0.00 74 1005.4
20260504191157 81 178 1.0 2.0 0.00 0.00 0.00 74 1005.4
20260504191056 81 197 1.0 2.0 0.00 0.00 0.00 74 1005.5
20260504190957 81 212 0.0 2.0 0.00 0.00 0.00 74 1005.5
20260504190855 81 212 0.0 2.0 0.00 0.00 0.00 74 1005.6
20260504190756 81 212 0.0 2.0 0.00 0.00 0.00 74 1005.5
20260504190657 81 175 0.0 2.0 0.00 0.00 0.00 74 1005.6
20260504190557 81 165 1.0 2.0 0.00 0.00 0.00 74 1005.7
20260504190455 81 165 1.0 2.0 0.00 0.00 0.00 74 1005.7
20260504190355 81 279 0.0 2.0 0.00 0.00 0.00 74 1005.7
20260504190255 81 183 0.0 1.0 0.00 0.00 0.00 74 1005.7
20260504190155 81 183 0.0 2.0 0.00 0.00 0.00 74 1005.8
20260504190055 81 183 0.0 2.0 0.00 0.00 0.00 74 1005.8
20260504185955 81 183 0.0 2.0 0.00 0.00 0.00 73 1005.8
20260504185856 81 182 0.0 2.0 0.00 0.00 0.00 73 1005.9
20260504185755 81 182 0.0 2.0 0.00 0.00 0.00 74 1005.8
20260504185657 81 206 0.0 2.0 0.00 0.00 0.00 74 1005.9
20260504185555 81 204 0.0 2.0 0.00 0.00 0.00 74 1005.9
20260504185456 81 197 0.0 3.0 0.00 0.00 0.00 74 1005.8
20260504185356 81 197 0.0 3.0 0.00 0.00 0.00 74 1005.9
20260504185256 81 186 1.0 3.0 0.00 0.00 0.00 74 1005.9
20260504185156 81 188 1.0 4.0 0.00 0.00 0.00 74 1005.8
20260504185055 81 197 1.0 4.0 0.00 0.00 0.00 74 1005.8
20260504184955 81 227 0.0 4.0 0.00 0.00 0.00 74 1005.8
20260504184854 81 228 0.0 4.0 0.00 0.00 0.00 74 1005.8
20260504184756 81 228 1.0 4.0 0.00 0.00 0.00 73 1005.9
20260504184655 81 220 1.0 4.0 0.00 0.00 0.00 73 1005.8
20260504184556 81 214 1.0 4.0 0.00 0.00 0.00 73 1005.9
20260504184456 81 262 1.0 4.0 0.00 0.00 0.00 73 1005.9
20260504184356 81 262 2.0 4.0 0.00 0.00 0.00 74 1005.9
20260504184255 81 310 1.0 4.0 0.00 0.00 0.00 74 1005.9
20260504184155 81 226 0.0 4.0 0.00 0.00 0.00 74 1005.9
20260504184056 81 83 0.0 4.0 0.00 0.00 0.00 74 1005.9
20260504183957 81 85 1.0 4.0 0.00 0.00 0.00 73 1006.0
20260504183854 81 83 1.0 4.0 0.00 0.00 0.00 73 1006.0
20260504183754 81 131 2.0 4.0 0.00 0.00 0.00 73 1006.1
20260504183654 81 224 2.0 4.0 0.00 0.00 0.00 73 1006.0
20260504183555 81 190 2.0 3.0 0.00 0.00 0.00 74 1006.0
20260504183456 81 317 2.0 3.0 0.00 0.00 0.00 74 1006.1
20260504183356 81 169 2.0 4.0 0.00 0.00 0.00 74 1006.0
20260504183256 81 159 1.0 5.0 0.00 0.00 0.00 72 1006.1
20260504183155 81 116 1.0 5.0 0.00 0.00 0.00 72 1006.0
20260504183056 81 283 1.0 5.0 0.00 0.00 0.00 72 1006.1
20260504182954 81 340 1.0 5.0 0.00 0.00 0.00 72 1006.1
20260504182856 81 252 0.0 5.0 0.00 0.00 0.00 73 1006.1
20260504182755 81 244 1.0 5.0 0.00 0.00 0.00 73 1006.1
20260504182654 81 303 1.0 5.0 0.00 0.00 0.00 73 1006.1
20260504182555 81 0 2.0 5.0 0.00 0.00 0.00 73 1006.1
20260504182454 81 0 2.0 5.0 0.00 0.00 0.00 73 1006.1
20260504182354 81 144 2.0 6.0 0.00 0.00 0.00 73 1006.1
20260504182254 81 243 2.0 6.0 0.00 0.00 0.00 73 1006.1
20260504182155 81 243 2.0 6.0 0.00 0.00 0.00 73 1006.2
20260504182054 81 296 1.0 6.0 0.00 0.00 0.00 73 1006.1
20260504181954 81 300 2.0 6.0 0.00 0.00 0.00 73 1006.1
20260504181855 81 199 2.0 6.0 0.00 0.00 0.00 72 1006.2
20260504181757 81 350 1.0 6.0 0.00 0.00 0.00 71 1006.2
20260504181654 81 350 1.0 6.0 0.00 0.00 0.00 71 1006.3
20260504181554 81 282 2.0 6.0 0.00 0.00 0.00 71 1006.3
20260504181454 82 282 2.0 6.0 0.00 0.00 0.00 72 1006.3
20260504181354 82 299 2.0 4.0 0.00 0.00 0.00 72 1006.1
20260504181255 82 268 2.0 4.0 0.00 0.00 0.00 72 1006.2
20260504181155 82 190 2.0 4.0 0.00 0.00 0.00 72 1006.2
20260504181055 82 134 1.0 4.0 0.00 0.00 0.00 72 1006.1
20260504180954 82 223 1.0 4.0 0.00 0.00 0.00 72 1006.1
20260504180854 82 89 1.0 4.0 0.00 0.00 0.00 72 1006.2
20260504180756 82 250 1.0 3.0 0.00 0.00 0.00 71 1006.1
20260504180656 82 179 2.0 3.0 0.00 0.00 0.00 71 1006.2
20260504180555 82 6 2.0 3.0 0.00 0.00 0.00 71 1006.1
20260504180454 82 216 2.0 3.0 0.00 0.00 0.00 71 1006.2
20260504180356 82 281 1.0 3.0 0.00 0.00 0.00 72 1006.2
20260504180255 82 293 1.0 3.0 0.00 0.00 0.00 73 1006.3
20260504180155 82 251 1.0 3.0 0.00 0.00 0.00 73 1006.3
20260504180055 82 235 1.0 3.0 0.00 0.00 0.00 73 1006.3
20260504175953 82 264 0.0 3.0 0.00 0.00 0.00 73 1006.4
20260504175854 82 0 0.0 3.0 0.00 0.00 0.00 71 1006.4
20260504175755 82 0 1.0 3.0 0.00 0.00 0.00 71 1006.4
20260504175655 82 286 1.0 3.0 0.00 0.00 0.00 71 1006.5
20260504175554 82 282 2.0 3.0 0.00 0.00 0.00 72 1006.4
20260504175455 82 292 1.0 3.0 0.00 0.00 0.00 72 1006.6
20260504175355 82 171 1.0 3.0 0.00 0.00 0.00 71 1006.6
20260504175253 82 243 2.0 4.0 0.00 0.00 0.00 71 1006.5
20260504175155 82 185 2.0 4.0 0.00 0.00 0.00 71 1006.5
20260504175053 82 283 2.0 4.0 0.00 0.00 0.00 71 1006.5
20260504174955 82 0 2.0 4.0 0.00 0.00 0.00 73 1006.5
20260504174853 82 168 1.0 5.0 0.00 0.00 0.00 73 1006.5
20260504174753 82 140 1.0 5.0 0.00 0.00 0.00 73 1006.6
20260504174654 82 255 1.0 5.0 0.00 0.00 0.00 72 1006.6
20260504174555 82 257 1.0 5.0 0.00 0.00 0.00 72 1006.5
20260504174454 81 269 2.0 5.0 0.00 0.00 0.00 72 1006.5
20260504174353 81 313 2.0 5.0 0.00 0.00 0.00 72 1006.5
20260504174255 81 282 1.0 5.0 0.00 0.00 0.00 72 1006.6
20260504174153 81 314 2.0 5.0 0.00 0.00 0.00 72 1006.6
20260504174053 81 279 3.0 5.0 0.00 0.00 0.00 72 1006.5
20260504173955 81 227 2.0 5.0 0.00 0.00 0.00 72 1006.6
20260504173855 81 203 0.0 4.0 0.00 0.00 0.00 72 1006.6
20260504173753 81 169 1.0 4.0 0.00 0.00 0.00 73 1006.5
20260504173654 81 151 2.0 4.0 0.00 0.00 0.00 73 1006.5
20260504173553 81 309 2.0 4.0 0.00 0.00 0.00 73 1006.5
20260504173454 81 240 1.0 4.0 0.00 0.00 0.00 73 1006.5
20260504173354 81 251 0.0 4.0 0.00 0.00 0.00 73 1006.5
20260504173253 81 251 1.0 4.0 0.00 0.00 0.00 73 1006.6
20260504173153 81 251 2.0 4.0 0.00 0.00 0.00 74 1006.5
20260504173054 81 223 1.0 4.0 0.00 0.00 0.00 74 1006.6
20260504172953 81 166 1.0 2.0 0.00 0.00 0.00 74 1006.6
20260504172853 81 245 1.0 5.0 0.00 0.00 0.00 74 1006.6
20260504172753 80 209 1.0 5.0 0.00 0.00 0.00 74 1006.7
20260504172652 80 89 1.0 5.0 0.00 0.00 0.00 74 1006.7
20260504172553 80 142 1.0 5.0 0.00 0.00 0.00 73 1006.7
20260504172454 80 141 1.0 5.0 0.00 0.00 0.00 73 1006.8
20260504172353 80 258 1.0 5.0 0.00 0.00 0.00 73 1006.8
20260504172253 80 274 1.0 5.0 0.00 0.00 0.00 74 1006.7
20260504172154 80 140 1.0 5.0 0.00 0.00 0.00 73 1006.8
20260504172058 80 140 2.0 5.0 0.00 0.00 0.00 73 1006.7
20260504171952 80 155 2.0 5.0 0.00 0.00 0.00 73 1006.6
20260504171854 80 133 2.0 4.0 0.00 0.00 0.00 73 1006.7
20260504171754 80 125 2.0 4.0 0.00 0.00 0.00 73 1006.7
20260504171653 80 54 1.0 2.0 0.00 0.00 0.00 74 1006.8
20260504171553 80 212 1.0 3.0 0.00 0.00 0.00 74 1006.7
20260504171454 80 316 0.0 3.0 0.00 0.00 0.00 74 1006.8
20260504171355 80 148 0.0 3.0 0.00 0.00 0.00 74 1006.9
20260504171253 80 259 1.0 3.0 0.00 0.00 0.00 75 1006.9
20260504171154 80 259 1.0 4.0 0.00 0.00 0.00 75 1006.9
20260504171053 80 258 1.0 4.0 0.00 0.00 0.00 75 1007.0
20260504170953 80 99 1.0 4.0 0.00 0.00 0.00 74 1007.0
20260504170854 80 100 0.0 4.0 0.00 0.00 0.00 74 1007.0
20260504170752 80 102 1.0 5.0 0.00 0.00 0.00 75 1007.0
20260504170654 80 100 2.0 5.0 0.00 0.00 0.00 75 1006.9
20260504170554 80 238 1.0 5.0 0.00 0.00 0.00 75 1007.0
20260504170454 79 121 1.0 5.0 0.00 0.00 0.00 74 1007.1
20260504170354 79 142 1.0 5.0 0.00 0.00 0.00 74 1007.1
20260504170253 79 142 2.0 5.0 0.00 0.00 0.00 74 1007.0
20260504170153 79 255 2.0 5.0 0.00 0.00 0.00 74 1007.1
20260504160354 76 93 2.0 6.0 0.00 0.00 0.00 78 1007.8
20260504160253 76 182 2.0 6.0 0.00 0.00 0.00 78 1007.8
20260504160152 76 154 1.0 6.0 0.00 0.00 0.00 78 1007.8
20260504151150 71 114 1.0 4.0 0.00 0.00 0.00 86 1008.0
20260504151051 71 274 0.0 4.0 0.00 0.00 0.00 86 1008.1
20260504150956 71 0 1.0 4.0 0.00 0.00 0.00 86 1008.0
20260504150852 71 0 1.0 4.0 0.00 0.00 0.00 87 1007.9
20260504150751 71 200 1.0 4.0 0.00 0.00 0.00 87 1007.9
20260504150651 71 213 1.0 4.0 0.00 0.00 0.00 87 1008.0
20260504150551 71 228 1.0 4.0 0.00 0.00 0.00 88 1008.0
20260504150450 71 254 2.0 4.0 0.00 0.00 0.00 88 1007.9
20260504150350 70 266 2.0 4.0 0.00 0.00 0.00 88 1007.9
20260504150251 70 299 1.0 4.0 0.00 0.00 0.00 88 1007.9
20260504150150 70 228 1.0 4.0 0.00 0.00 0.00 88 1008.0
20260504141250 63 109 0.0 1.0 0.00 0.00 0.00 100 1007.9
20260504141150 62 32 0.0 0.0 0.00 0.00 0.00 99 1007.9
20260504141049 62 32 0.0 0.0 0.00 0.00 0.00 99 1008.0
20260504140949 62 32 0.0 0.0 0.00 0.00 0.00 99 1008.0
20260504140851 62 32 0.0 2.0 0.00 0.00 0.00 100 1007.9
20260504140749 62 32 0.0 2.0 0.00 0.00 0.00 100 1008.0
20260504140648 62 32 0.0 2.0 0.00 0.00 0.00 99 1007.9
20260504140550 62 32 0.0 2.0 0.00 0.00 0.00 99 1007.9
20260504140448 62 32 0.0 2.0 0.00 0.00 0.00 99 1007.9
20260504140349 61 32 0.0 2.0 0.00 0.00 0.00 99 1007.9
20260504140249 61 32 0.0 2.0 0.00 0.00 0.00 99 1008.0
20260504140150 61 32 0.0 2.0 0.00 0.00 0.00 99 1008.0
20260504130747 57 179 0.0 0.0 0.00 0.00 0.00 98 1008.0
20260504130648 57 179 0.0 0.0 0.00 0.00 0.00 98 1008.0
20260504130547 56 179 0.0 0.0 0.00 0.00 0.00 97 1007.9
20260504130448 56 179 0.0 0.0 0.00 0.00 0.00 97 1007.9
20260504130349 56 179 0.0 0.0 0.00 0.00 0.00 97 1007.8
20260504130248 56 179 0.0 0.0 0.00 0.00 0.00 97 1007.9
20260504130147 56 179 0.0 0.0 0.00 0.00 0.00 97 1007.9